Longview, TX

5:12 AM CST on January 22, 2018 (GMT -0600)
Gregg County

Weather History for KGGG - June, 2012

Change the Weather History Date:

Tuesday, June 19, 2012

  Actual Average Record
Temperature  
Mean Temperature 81 °F 80 °F  
Max Temperature 88 °F 91 °F 105 °F (1918)
Min Temperature 74 °F 70 °F 56 °F (1920)
Degree Days  
Heating Degree Days 0 0  
Month to date heating degree days 0 0  
Since 1 June heating degree days 0 0  
Since 1 July heating degree days 1665 2258  
Cooling Degree Days 16 15  
Month to date cooling degree days 301 258  
Year to date cooling degree days 952 637  
Since 1 June cooling degree days 301 258  
Growing Degree Days 30 (Base 50)    
Moisture  
Dew Point 73 °F    
Average Humidity 78    
Maximum Humidity 94    
Minimum Humidity 61    
Precipitation  
Precipitation 0.03 in 0.19 in 1.63 in (1976)
Month to date precipitation 1.62 3.16  
Year to date precipitation 19.63 22.89  
Snow  
Snow 0.00 in - - ()
Month to date snowfall 0.0  
Since 1 June snowfall 0.0  
Since 1 July snowfall 0.0  
Snow Depth 0.00 in    
Sea Level Pressure  
Sea Level Pressure 29.93 in    
Wind  
Wind Speed 11 mph (SSE)    
Max Wind Speed 25 mph    
Max Gust Speed 37 mph    
Visibility 10 miles    
Events Rain , Thunderstorm    
T = Trace of Precipitation, MM = Missing Value Source: NWS Daily Summary

Daily Weather History Graph

Daily Weather History Graph

Search for Another Location

Airport or City:

Trip Planner

Search our weather history database for the weather conditions in past years. The results will help you decide how hot, cold, wet, or windy it might be!

Date:

Astronomy

Jun. 19, 2012 Rise Set
Actual Time 6:11 AM CDT 8:28 PM CDT
Civil Twilight 5:43 AM CDT 8:57 PM CDT
Nautical Twilight 5:08 AM CDT 9:32 PM CDT
Astronomical Twilight 4:30 AM CDT 10:09 PM CDT
Moon 6:15 AM CDT (6/19) 8:36 PM CDT (6/19)
Length of Visible Light 15h 13m
Length of Day
14h 16m
New Moon, 0% of the Moon is Illuminated
Jun 19
New Moon
Jun 26
First Quarter
Jul 3
Full
Jul 10
Last Quarter
Jul 18
New

Hourly Weather History & Observations

Time (CDT) Temp. Heat Index Dew Point Humidity Pressure Visibility Wind Dir Wind Speed Gust Speed Precip Events Conditions
12:53 AM 75.0 °F - 72.0 °F 90% 29.89 in 10.0 mi SSE 10.4 mph - N/A   Partly Cloudy
1:53 AM 75.0 °F - 72.0 °F 90% 29.88 in 10.0 mi SSE 9.2 mph - N/A   Clear
2:53 AM 73.9 °F - 72.0 °F 93% 29.87 in 10.0 mi SSE 11.5 mph - N/A   Clear
3:53 AM 73.9 °F - 72.0 °F 93% 29.88 in 10.0 mi SSE 9.2 mph - N/A   Scattered Clouds
4:03 AM 73.4 °F - 71.6 °F 94% 29.91 in 10.0 mi SSE 8.1 mph - N/A   Mostly Cloudy
4:41 AM 73.4 °F - 71.6 °F 94% 29.91 in 10.0 mi SSE 10.4 mph - N/A   Overcast
4:53 AM 73.9 °F - 72.0 °F 93% 29.90 in 10.0 mi SSE 10.4 mph - N/A   Overcast
5:53 AM 75.0 °F - 72.0 °F 90% 29.91 in 8.0 mi SSE 9.2 mph - N/A   Overcast
6:38 AM 75.2 °F - 73.4 °F 94% 29.93 in 8.0 mi SE 9.2 mph - N/A   Overcast
6:53 AM 75.9 °F - 73.0 °F 91% 29.92 in 8.0 mi SE 11.5 mph - N/A   Overcast
7:53 AM 77.0 °F - 73.0 °F 88% 29.94 in 10.0 mi SE 9.2 mph - N/A   Mostly Cloudy
8:02 AM 78.8 °F - 73.4 °F 83% 29.95 in 10.0 mi SSE 11.5 mph - N/A   Mostly Cloudy
8:12 AM 78.8 °F - 73.4 °F 83% 29.96 in 10.0 mi SSE 9.2 mph - N/A   Mostly Cloudy
8:46 AM 78.8 °F - 73.4 °F 83% 29.96 in 9.0 mi SE 11.5 mph - N/A   Overcast
8:53 AM 79.0 °F - 73.9 °F 84% 29.95 in 9.0 mi SE 10.4 mph - N/A   Overcast
9:53 AM 81.0 °F 86.2 °F 73.9 °F 79% 29.95 in 10.0 mi SSE 16.1 mph 21.9 mph N/A   Mostly Cloudy
10:36 AM 82.4 °F 88.2 °F 73.4 °F 74% 29.96 in 10.0 mi South 11.5 mph - N/A   Scattered Clouds
10:53 AM 84.0 °F 89.6 °F 72.0 °F 67% 29.94 in 10.0 mi South 17.3 mph 23.0 mph N/A   Scattered Clouds
11:53 AM 86.0 °F 92.2 °F 72.0 °F 63% 29.94 in 10.0 mi SSE 13.8 mph 23.0 mph N/A   Scattered Clouds
12:33 PM 87.8 °F 93.8 °F 71.6 °F 58% 29.96 in 10.0 mi SE 13.8 mph 19.6 mph N/A Thunderstorm Thunderstorm
12:53 PM 84.9 °F 90.7 °F 72.0 °F 65% 29.95 in 10.0 mi South 26.5 mph 36.8 mph N/A Thunderstorm Thunderstorm
1:06 PM 77.0 °F - 71.6 °F 83% 29.96 in 5.0 mi SE 8.1 mph - 0.02 in Rain , Thunderstorm Light Thunderstorms and Rain
1:20 PM 78.8 °F - 73.4 °F 83% 29.95 in 10.0 mi SSE 3.5 mph - 0.02 in Thunderstorm Thunderstorm
1:21 PM 78.8 °F - 73.4 °F 83% 29.95 in 10.0 mi SSE 4.6 mph - 0.02 in Thunderstorm Thunderstorm
1:53 PM 77.0 °F - 73.0 °F 88% 29.96 in 8.0 mi SSE 8.1 mph - 0.03 in Rain , Thunderstorm Light Thunderstorms and Rain
2:40 PM 78.8 °F - 73.4 °F 83% 29.95 in 10.0 mi SSE 9.2 mph - 0.00 in   Mostly Cloudy
2:53 PM 79.0 °F - 75.0 °F 88% 29.94 in 10.0 mi SSE 9.2 mph - 0.00 in   Clear
3:53 PM 82.0 °F 87.4 °F 73.0 °F 74% 29.92 in 10.0 mi SSE 10.4 mph - N/A   Overcast
4:53 PM 84.9 °F 92.1 °F 73.9 °F 69% 29.92 in 10.0 mi SE 10.4 mph - N/A   Overcast
5:53 PM 84.2 °F 89.6 °F 71.6 °F 66% 29.93 in 10.0 mi SSE 12.7 mph - N/A   Overcast
6:24 PM 82.4 °F 88.2 °F 73.4 °F 74% 29.93 in 10.0 mi SE 10.4 mph - N/A Thunderstorm Scattered Clouds
6:46 PM 80.6 °F 85.4 °F 73.4 °F 79% 29.94 in 10.0 mi SW 10.4 mph - N/A   Mostly Cloudy
6:53 PM 80.1 °F 83.8 °F 72.0 °F 76% 29.93 in 10.0 mi South 11.5 mph - N/A   Scattered Clouds
7:53 PM 78.1 °F - 71.1 °F 79% 29.92 in 10.0 mi SE 3.5 mph - N/A   Mostly Cloudy
8:53 PM 79.0 °F - 71.1 °F 77% 29.92 in 10.0 mi ESE 6.9 mph - N/A   Mostly Cloudy
9:53 PM 78.1 °F - 71.1 °F 79% 29.94 in 10.0 mi SSE 9.2 mph - N/A   Clear
10:53 PM 78.1 °F - 71.1 °F 79% 29.98 in 9.0 mi South 8.1 mph - N/A   Partly Cloudy
11:53 PM 75.9 °F - 71.1 °F 85% 29.98 in 10.0 mi South 5.8 mph - N/A   Clear